Total_Precipitation_Accumulation
0.00 0.00 0.00 0.00 0.00 0.00 0.00 0.00 0.00 0.01 0.04 0.04 0.03 0.00 0.00 0.00 0.00 0.00 0.00 0.00 0.00 0.00 0.00 0.00 0.00 0.00 0.00
0.00 0.00 0.00 0.00 0.00 0.00 0.00 0.00 0.00 0.00 0.01 0.01 0.02 0.00 0.00 0.00 0.00 0.00 0.00 0.00 0.00 0.00 0.00 0.00 0.00 0.00 0.00
0.00 0.00 0.00 0.00 0.00 0.00 0.00 0.00 0.00 0.01 0.00 0.00 0.00 0.00 0.00 0.00 0.00 0.00 0.00 0.00 0.00 0.00 0.00 0.00 0.00 0.00 0.00
0.02 0.02 0.02 0.01 0.01 0.01 0.02 0.02 0.02 0.02 0.02 0.02 0.02 0.02 0.02 0.02 0.02 0.01 0.01 0.01 0.01 0.01 0.01 0.00 0.00 0.00 0.00
0.05 0.05 0.04 0.04 0.04 0.04 0.05 0.04 0.04 0.03 0.04 0.05 0.05 0.04 0.05 0.07 0.06 0.05 0.05 0.05 0.04 0.02 0.01 0.00 0.00 0.00 0.00
0.06 0.04 0.03 0.05 0.06 0.09 0.11 0.10 0.09 0.05 0.11 0.08 0.08 0.06 0.07 0.11 0.16 0.12 0.09 0.07 0.05 0.03 0.01 0.00 0.00 0.00 0.00
0.06 0.04 0.06 0.11 0.19 0.17 0.12 0.15 0.16 0.11 0.15 0.15 0.13 0.16 0.16 0.19 0.21 0.13 0.09 0.06 0.04 0.02 0.00 0.00 0.00 0.00 0.00
0.17 0.18 0.22 0.25 0.27 0.24 0.22 0.24 0.18 0.15 0.14 0.15 0.11 0.15 0.15 0.16 0.23 0.12 0.07 0.04 0.03 0.02 0.00 0.00 0.00 0.00 0.00
0.34 0.31 0.31 0.31 0.27 0.26 0.25 0.27 0.21 0.12 0.16 0.15 0.07 0.12 0.13 0.12 0.12 0.14 0.08 0.05 0.02 0.00 0.00 0.00 0.00 0.00 0.00
0.24 0.20 0.17 0.19 0.25 0.20 0.17 0.18 0.13 0.10 0.08 0.16 0.08 0.12 0.11 0.04 0.05 0.07 0.04 0.02 0.01 0.00 0.00 0.00 0.00 0.00 0.00
0.14 0.17 0.19 0.18 0.17 0.16 0.14 0.13 0.11 0.09 0.10 0.10 0.06 0.10 0.11 0.02 0.02 0.03 0.02 0.00 0.00 0.00 0.00 0.00 0.00 0.00 0.00
0.05 0.07 0.09 0.12 0.13 0.12 0.12 0.11 0.11 0.10 0.11 0.09 0.06 0.08 0.07 0.04 0.00 0.00 0.00 0.00 0.00 0.00 0.00 0.00 0.00 0.00 0.00
0.02 0.04 0.08 0.09 0.08 0.06 0.05 0.04 0.04 0.05 0.05 0.02 0.02 0.01 0.00 0.00 0.00 0.00 0.00 0.00 0.00 0.00 0.00 0.00 0.00 0.00 0.00
0.05 0.06 0.05 0.04 0.05 0.05 0.05 0.04 0.04 0.03 0.02 0.01 0.01 0.00 0.00 0.00 0.00 0.00 0.00 0.00 0.00 0.00 0.00 0.00 0.00 0.00 0.00
0.10 0.11 0.09 0.10 0.10 0.08 0.05 0.03 0.02 0.02 0.01 0.00 0.00 0.00 0.00 0.00 0.00 0.00 0.00 0.00 0.00 0.00 0.00 0.00 0.00 0.00 0.00
0.14 0.11 0.09 0.09 0.08 0.07 0.04 0.03 0.03 0.02 0.01 0.00 0.00 0.00 0.00 0.00 0.00 0.00 0.00 0.00 0.00 0.00 0.00 0.00 0.00 0.00 0.00
0.12 0.10 0.09 0.09 0.08 0.04 0.03 0.04 0.03 0.03 0.02 0.01 0.00 0.00 0.00 0.00 0.00 0.00 0.00 0.00 0.00 0.00 0.00 0.00 0.00 0.00 0.00